Time,TemperatureF,DewpointF,PressureIn,WindDirection,WindDirectionDegrees,WindSpeedMPH,WindSpeedGustMPH,Humidity,HourlyPrecipIn,Conditions,Clouds,dailyrainin,SoftwareType,DateUTC
2013-01-28 00:05:00,74.6,74.6,30.14,East,85,10.0,10.0,100,0.00,,,0.00,Wunderground v.1.15,2013-01-28 05:05:00,
2013-01-28 00:10:00,74.4,74.4,30.14,NE,48,9.0,9.0,100,0.00,,,0.00,Wunderground v.1.15,2013-01-28 05:10:00,
2013-01-28 00:20:00,74.2,74.2,30.14,ENE,62,8.0,8.0,100,0.00,,,0.00,Wunderground v.1.15,2013-01-28 05:20:00,
2013-01-28 00:25:00,74.2,74.2,30.14,NE,45,8.0,8.0,100,0.00,,,0.00,Wunderground v.1.15,2013-01-28 05:25:00,
2013-01-28 00:30:00,74.4,74.4,30.14,ESE,102,10.0,10.0,100,0.00,,,0.00,Wunderground v.1.15,2013-01-28 05:30:00,
2013-01-28 00:40:00,74.2,74.2,30.14,ESE,117,9.0,9.0,100,0.00,,,0.00,Wunderground v.1.15,2013-01-28 05:40:00,
2013-01-28 00:50:00,74.2,74.2,30.14,ENE,75,9.0,9.0,100,0.00,,,0.00,Wunderground v.1.15,2013-01-28 05:50:00,
2013-01-28 01:00:00,74.2,74.2,30.14,ENE,75,9.0,9.0,100,0.00,,,0.00,Wunderground v.1.15,2013-01-28 06:00:00,
2013-01-28 01:10:00,74.2,74.2,30.14,ESE,114,9.0,9.0,100,0.00,,,0.00,Wunderground v.1.15,2013-01-28 06:10:00,
2013-01-28 01:15:00,74.2,74.2,30.14,ENE,61,10.0,10.0,100,0.00,,,0.00,Wunderground v.1.15,2013-01-28 06:15:00,
2013-01-28 01:25:00,74.2,74.2,30.14,ESE,116,9.0,9.0,100,0.00,,,0.00,Wunderground v.1.15,2013-01-28 06:25:00,
2013-01-28 01:35:00,74.2,74.2,30.14,NE,48,9.0,11.0,100,0.00,,,0.00,Wunderground v.1.15,2013-01-28 06:35:00,
2013-01-28 01:45:00,74.2,74.2,30.14,East,92,10.0,10.0,100,0.00,,,0.00,Wunderground v.1.15,2013-01-28 06:45:00,
2013-01-28 01:55:00,74.0,74.0,30.14,East,82,9.0,10.0,100,0.00,,,0.00,Wunderground v.1.15,2013-01-28 06:55:00,
2013-01-28 02:05:00,74.0,74.0,30.14,NE,44,10.0,12.0,100,0.00,,,0.00,Wunderground v.1.15,2013-01-28 07:05:00,
2013-01-28 02:15:00,74.0,74.0,30.13,East,99,10.0,11.0,100,0.00,,,0.00,Wunderground v.1.15,2013-01-28 07:15:00,
2013-01-28 02:25:00,74.0,74.0,30.13,East,96,9.0,10.0,100,0.00,,,0.00,Wunderground v.1.15,2013-01-28 07:25:00,
2013-01-28 02:35:00,73.9,73.9,30.12,NE,49,8.0,10.0,100,0.00,,,0.00,Wunderground v.1.15,2013-01-28 07:35:00,
2013-01-28 02:40:00,73.9,73.9,30.12,ENE,76,8.0,12.0,100,0.00,,,0.00,Wunderground v.1.15,2013-01-28 07:40:00,
2013-01-28 02:50:00,74.0,74.0,30.12,ENE,78,9.0,9.0,100,0.00,,,0.00,Wunderground v.1.15,2013-01-28 07:50:00,
2013-01-28 03:05:00,74.0,74.0,30.12,East,85,8.0,8.0,100,0.00,,,0.00,Wunderground v.1.15,2013-01-28 08:05:00,
2013-01-28 03:15:00,73.9,73.9,30.12,East,95,7.0,7.0,100,0.00,,,0.00,Wunderground v.1.15,2013-01-28 08:15:00,
2013-01-28 03:25:00,74.0,74.0,30.12,East,97,7.0,9.0,100,0.00,,,0.00,Wunderground v.1.15,2013-01-28 08:25:00,
2013-01-28 03:35:00,74.0,74.0,30.12,ESE,106,7.0,11.0,100,0.00,,,0.00,Wunderground v.1.15,2013-01-28 08:35:00,
2013-01-28 03:45:00,74.0,74.0,30.12,East,97,8.0,10.0,100,0.00,,,0.00,Wunderground v.1.15,2013-01-28 08:45:00,
2013-01-28 03:55:00,74.0,74.0,30.12,East,92,10.0,10.0,100,0.00,,,0.00,Wunderground v.1.15,2013-01-28 08:55:00,
2013-01-28 04:05:00,74.2,74.2,30.12,ENE,73,9.0,10.0,100,0.00,,,0.00,Wunderground v.1.15,2013-01-28 09:05:00,
2013-01-28 04:10:00,74.2,74.2,30.12,ENE,62,9.0,12.0,100,0.00,,,0.00,Wunderground v.1.15,2013-01-28 09:10:00,
2013-01-28 04:20:00,74.0,74.0,30.12,East,80,7.0,11.0,100,0.00,,,0.00,Wunderground v.1.15,2013-01-28 09:20:00,
2013-01-28 04:30:00,73.7,73.7,30.12,ENE,69,7.0,7.0,100,0.00,,,0.00,Wunderground v.1.15,2013-01-28 09:30:00,
2013-01-28 04:35:00,73.9,73.9,30.12,NE,48,8.0,8.0,100,0.00,,,0.00,Wunderground v.1.15,2013-01-28 09:35:00,
2013-01-28 04:45:00,73.7,73.7,30.12,East,93,7.0,10.0,100,0.00,,,0.00,Wunderground v.1.15,2013-01-28 09:45:00,
2013-01-28 04:55:00,73.7,73.7,30.12,East,85,8.0,11.0,100,0.00,,,0.00,Wunderground v.1.15,2013-01-28 09:55:00,
2013-01-28 05:00:00,73.7,73.7,30.12,ESE,102,8.0,10.0,100,0.00,,,0.00,Wunderground v.1.15,2013-01-28 10:00:00,
2013-01-28 05:10:00,73.7,73.7,30.12,East,79,7.0,7.0,100,0.00,,,0.00,Wunderground v.1.15,2013-01-28 10:10:00,
2013-01-28 05:20:00,73.9,73.9,30.12,ENE,65,8.0,8.0,100,0.00,,,0.00,Wunderground v.1.15,2013-01-28 10:20:00,
2013-01-28 05:30:00,73.7,73.7,30.12,East,83,7.0,11.0,100,0.00,,,0.00,Wunderground v.1.15,2013-01-28 10:30:00,
2013-01-28 05:40:00,73.9,73.9,30.12,ESE,107,8.0,8.0,100,0.00,,,0.00,Wunderground v.1.15,2013-01-28 10:40:00,
2013-01-28 05:50:00,73.9,73.9,30.13,ENE,69,9.0,10.0,100,0.00,,,0.00,Wunderground v.1.15,2013-01-28 10:50:00,
2013-01-28 06:00:00,73.9,73.9,30.13,ESE,109,8.0,10.0,100,0.00,,,0.00,Wunderground v.1.15,2013-01-28 11:00:00,
2013-01-28 06:10:00,74.0,74.0,30.13,ENE,73,8.0,8.0,100,0.00,,,0.00,Wunderground v.1.15,2013-01-28 11:10:00,
2013-01-28 06:20:00,74.0,74.0,30.14,East,93,7.0,11.0,100,0.00,,,0.00,Wunderground v.1.15,2013-01-28 11:20:00,
2013-01-28 06:30:00,74.0,74.0,30.14,ESE,103,8.0,8.0,100,0.00,,,0.00,Wunderground v.1.15,2013-01-28 11:30:00,
2013-01-28 06:40:00,74.0,74.0,30.14,NE,56,7.0,7.0,100,0.00,,,0.00,Wunderground v.1.15,2013-01-28 11:40:00,
2013-01-28 06:50:00,73.9,73.9,30.14,ENE,78,7.0,7.0,100,0.00,,,0.00,Wunderground v.1.15,2013-01-28 11:50:00,
2013-01-28 07:00:00,74.0,74.0,30.15,ENE,65,8.0,8.0,100,0.00,,,0.00,Wunderground v.1.15,2013-01-28 12:00:00,
2013-01-28 07:10:00,74.2,74.2,30.15,East,89,8.0,10.0,100,0.00,,,0.00,Wunderground v.1.15,2013-01-28 12:10:00,
2013-01-28 07:20:00,74.0,74.0,30.15,East,88,8.0,10.0,100,0.00,,,0.00,Wunderground v.1.15,2013-01-28 12:20:00,
2013-01-28 07:30:00,74.0,74.0,30.15,ENE,73,9.0,11.0,100,0.00,,,0.00,Wunderground v.1.15,2013-01-28 12:30:00,
2013-01-28 07:40:00,74.0,74.0,30.15,East,96,7.0,7.0,100,0.00,,,0.00,Wunderground v.1.15,2013-01-28 12:40:00,
2013-01-28 07:45:00,74.2,74.2,30.16,ESE,117,8.0,11.0,100,0.00,,,0.00,Wunderground v.1.15,2013-01-28 12:45:00,
2013-01-28 07:55:00,74.4,74.4,30.16,ENE,78,7.0,8.0,100,0.00,,,0.00,Wunderground v.1.15,2013-01-28 12:55:00,
2013-01-28 08:05:00,74.6,74.6,30.16,East,80,8.0,8.0,100,0.00,,,0.00,Wunderground v.1.15,2013-01-28 13:05:00,
2013-01-28 08:10:00,74.7,74.7,30.16,East,83,8.0,10.0,100,0.00,,,0.00,Wunderground v.1.15,2013-01-28 13:10:00,
2013-01-28 08:20:00,74.9,74.9,30.17,ENE,71,8.0,12.0,100,0.00,,,0.00,Wunderground v.1.15,2013-01-28 13:20:00,
2013-01-28 08:30:00,74.7,74.7,30.17,ESE,102,7.0,7.0,100,0.00,,,0.00,Wunderground v.1.15,2013-01-28 13:30:00,
2013-01-28 08:40:00,75.3,75.3,30.17,East,85,9.0,10.0,100,0.00,,,0.00,Wunderground v.1.15,2013-01-28 13:40:00,
2013-01-28 08:45:00,75.4,75.4,30.17,East,88,9.0,10.0,100,0.00,,,0.00,Wunderground v.1.15,2013-01-28 13:45:00,
2013-01-28 08:55:00,75.6,75.6,30.17,East,92,8.0,9.0,100,0.00,,,0.00,Wunderground v.1.15,2013-01-28 13:55:00,
2013-01-28 09:05:00,75.6,75.6,30.18,ENE,73,6.0,10.0,100,0.00,,,0.00,Wunderground v.1.15,2013-01-28 14:05:00,
2013-01-28 09:10:00,75.6,75.6,30.18,ESE,116,8.0,8.0,100,0.00,,,0.00,Wunderground v.1.15,2013-01-28 14:10:00,
2013-01-28 09:20:00,76.0,76.0,30.18,SE,126,7.0,7.0,100,0.00,,,0.00,Wunderground v.1.15,2013-01-28 14:20:00,
2013-01-28 09:30:00,75.8,75.8,30.19,ENE,76,7.0,7.0,100,0.00,,,0.00,Wunderground v.1.15,2013-01-28 14:30:00,
2013-01-28 09:35:00,76.0,76.0,30.19,ESE,106,8.0,8.0,100,0.00,,,0.00,Wunderground v.1.15,2013-01-28 14:35:00,
2013-01-28 09:45:00,75.6,75.6,30.19,East,93,8.0,8.0,100,0.00,,,0.00,Wunderground v.1.15,2013-01-28 14:45:00,
2013-01-28 09:55:00,76.0,76.0,30.19,NE,55,8.0,12.0,100,0.00,,,0.00,Wunderground v.1.15,2013-01-28 14:55:00,
2013-01-28 10:00:00,76.1,76.1,30.19,ENE,73,8.0,8.0,100,0.00,,,0.00,Wunderground v.1.15,2013-01-28 15:00:00,
2013-01-28 10:10:00,76.0,76.0,30.19,ENE,78,8.0,8.0,100,0.00,,,0.00,Wunderground v.1.15,2013-01-28 15:10:00,
2013-01-28 10:20:00,76.0,76.0,30.20,East,100,8.0,8.0,100,0.00,,,0.00,Wunderground v.1.15,2013-01-28 15:20:00,
2013-01-28 10:30:00,76.1,76.1,30.20,ENE,78,8.0,8.0,100,0.00,,,0.00,Wunderground v.1.15,2013-01-28 15:30:00,
2013-01-28 10:35:00,76.1,76.1,30.20,ESE,102,8.0,10.0,100,0.00,,,0.00,Wunderground v.1.15,2013-01-28 15:35:00,
2013-01-28 10:45:00,76.1,76.1,30.20,ESE,112,9.0,12.0,100,0.00,,,0.00,Wunderground v.1.15,2013-01-28 15:45:00,
2013-01-28 10:55:00,76.0,76.0,30.20,East,95,9.0,10.0,100,0.00,,,0.00,Wunderground v.1.15,2013-01-28 15:55:00,
2013-01-28 11:05:00,76.3,76.3,30.20,East,85,9.0,11.0,100,0.00,,,0.00,Wunderground v.1.15,2013-01-28 16:05:00,
2013-01-28 11:10:00,76.5,76.5,30.20,ESE,110,9.0,9.0,100,0.00,,,0.00,Wunderground v.1.15,2013-01-28 16:10:00,
2013-01-28 11:20:00,76.3,76.3,30.20,East,93,8.0,10.0,100,0.00,,,0.00,Wunderground v.1.15,2013-01-28 16:20:00,
2013-01-28 11:30:00,76.5,76.5,30.19,ENE,75,9.0,9.0,100,0.00,,,0.00,Wunderground v.1.15,2013-01-28 16:30:00,
2013-01-28 11:40:00,76.3,76.3,30.19,ENE,76,8.0,10.0,100,0.00,,,0.00,Wunderground v.1.15,2013-01-28 16:40:00,
2013-01-28 11:50:00,75.8,75.8,30.19,ENE,78,8.0,8.0,100,0.00,,,0.00,Wunderground v.1.15,2013-01-28 16:50:00,
2013-01-28 11:55:00,76.0,76.0,30.19,ENE,65,7.0,8.0,100,0.00,,,0.00,Wunderground v.1.15,2013-01-28 16:55:00,
2013-01-28 12:05:00,76.0,76.0,30.19,East,82,7.0,7.0,100,0.00,,,0.00,Wunderground v.1.15,2013-01-28 17:05:00,
2013-01-28 12:15:00,75.8,75.8,30.18,ESE,104,9.0,12.0,100,0.00,,,0.00,Wunderground v.1.15,2013-01-28 17:15:00,
2013-01-28 12:25:00,76.0,76.0,30.18,ENE,69,8.0,9.0,100,0.00,,,0.00,Wunderground v.1.15,2013-01-28 17:25:00,
2013-01-28 12:30:00,76.1,76.1,30.17,ENE,71,8.0,8.0,100,0.00,,,0.00,Wunderground v.1.15,2013-01-28 17:30:00,
2013-01-28 12:35:00,76.5,76.5,30.17,ESE,103,8.0,13.0,100,0.00,,,0.00,Wunderground v.1.15,2013-01-28 17:35:00,
2013-01-28 12:45:00,76.3,76.3,30.17,NE,49,8.0,8.0,100,0.00,,,0.00,Wunderground v.1.15,2013-01-28 17:45:00,
2013-01-28 12:50:00,76.5,76.5,30.17,East,95,9.0,10.0,100,0.00,,,0.00,Wunderground v.1.15,2013-01-28 17:50:00,
2013-01-28 13:00:00,76.5,76.5,30.16,ENE,66,8.0,8.0,100,0.00,,,0.00,Wunderground v.1.15,2013-01-28 18:00:00,
2013-01-28 13:10:00,76.3,76.3,30.16,East,86,9.0,9.0,100,0.00,,,0.00,Wunderground v.1.15,2013-01-28 18:10:00,
2013-01-28 13:20:00,76.5,76.5,30.15,ESE,117,9.0,9.0,100,0.00,,,0.00,Wunderground v.1.15,2013-01-28 18:20:00,
2013-01-28 13:25:00,76.7,76.7,30.15,ESE,116,8.0,9.0,100,0.00,,,0.00,Wunderground v.1.15,2013-01-28 18:25:00,
2013-01-28 13:35:00,76.8,76.8,30.15,ESE,102,8.0,10.0,100,0.00,,,0.00,Wunderground v.1.15,2013-01-28 18:35:00,
2013-01-28 13:45:00,76.7,76.7,30.14,ESE,119,7.0,8.0,100,0.00,,,0.00,Wunderground v.1.15,2013-01-28 18:45:00,
2013-01-28 13:50:00,76.7,76.7,30.14,East,92,8.0,8.0,100,0.00,,,0.00,Wunderground v.1.15,2013-01-28 18:50:00,
2013-01-28 14:00:00,77.0,77.0,30.13,East,95,7.0,7.0,100,0.00,,,0.00,Wunderground v.1.15,2013-01-28 19:00:00,
2013-01-28 14:10:00,76.5,76.5,30.13,East,79,7.0,8.0,100,0.00,,,0.00,Wunderground v.1.15,2013-01-28 19:10:00,
2013-01-28 14:20:00,76.5,76.5,30.13,ENE,65,7.0,7.0,100,0.00,,,0.00,Wunderground v.1.15,2013-01-28 19:20:00,
2013-01-28 14:25:00,76.3,76.3,30.13,ESE,109,7.0,10.0,100,0.00,,,0.00,Wunderground v.1.15,2013-01-28 19:25:00,
2013-01-28 14:35:00,76.5,76.5,30.12,ESE,102,8.0,8.0,100,0.00,,,0.00,Wunderground v.1.15,2013-01-28 19:35:00,
2013-01-28 14:40:00,76.5,76.5,30.12,East,80,7.0,10.0,100,0.00,,,0.00,Wunderground v.1.15,2013-01-28 19:40:00,
2013-01-28 14:50:00,77.0,77.0,30.12,NE,55,8.0,8.0,100,0.00,,,0.00,Wunderground v.1.15,2013-01-28 19:50:00,
2013-01-28 15:00:00,76.5,76.5,30.12,East,100,8.0,10.0,100,0.00,,,0.00,Wunderground v.1.15,2013-01-28 20:00:00,
2013-01-28 15:10:00,76.8,76.8,30.12,ESE,106,7.0,10.0,100,0.00,,,0.00,Wunderground v.1.15,2013-01-28 20:10:00,
2013-01-28 15:15:00,76.5,76.5,30.12,SE,128,7.0,10.0,100,0.00,,,0.00,Wunderground v.1.15,2013-01-28 20:15:00,
2013-01-28 15:20:00,76.5,76.5,30.12,East,83,7.0,7.0,100,0.00,,,0.00,Wunderground v.1.15,2013-01-28 20:20:00,
2013-01-28 15:30:00,76.8,76.8,30.11,East,95,7.0,7.0,100,0.00,,,0.00,Wunderground v.1.15,2013-01-28 20:30:00,
2013-01-28 15:40:00,76.7,76.7,30.11,East,85,6.0,6.0,100,0.00,,,0.00,Wunderground v.1.15,2013-01-28 20:40:00,
2013-01-28 15:45:00,76.8,76.8,30.11,NE,56,6.0,12.0,100,0.00,,,0.00,Wunderground v.1.15,2013-01-28 20:45:00,
2013-01-28 15:50:00,76.8,76.8,30.11,ENE,73,6.0,6.0,100,0.00,,,0.00,Wunderground v.1.15,2013-01-28 20:50:00,
2013-01-28 15:55:00,76.5,76.5,30.11,ENE,75,7.0,7.0,100,0.00,,,0.00,Wunderground v.1.15,2013-01-28 20:55:00,
2013-01-28 16:05:00,76.0,76.0,30.11,ESE,121,7.0,7.0,100,0.00,,,0.00,Wunderground v.1.15,2013-01-28 21:05:00,
2013-01-28 16:10:00,76.1,76.1,30.11,ESE,109,8.0,8.0,100,0.00,,,0.00,Wunderground v.1.15,2013-01-28 21:10:00,
2013-01-28 16:20:00,76.3,76.3,30.11,ESE,120,7.0,7.0,100,0.00,,,0.00,Wunderground v.1.15,2013-01-28 21:20:00,
2013-01-28 16:30:00,76.1,76.1,30.11,ENE,76,8.0,8.0,100,0.00,,,0.00,Wunderground v.1.15,2013-01-28 21:30:00,
2013-01-28 16:40:00,75.8,75.8,30.11,ESE,109,7.0,7.0,100,0.00,,,0.00,Wunderground v.1.15,2013-01-28 21:40:00,
2013-01-28 16:45:00,75.8,75.8,30.11,East,88,6.0,7.0,100,0.00,,,0.00,Wunderground v.1.15,2013-01-28 21:45:00,
2013-01-28 16:50:00,75.8,75.8,30.11,NE,54,6.0,12.0,100,0.00,,,0.00,Wunderground v.1.15,2013-01-28 21:50:00,
2013-01-28 17:00:00,75.4,75.4,30.12,ESE,102,7.0,7.0,100,0.00,,,0.00,Wunderground v.1.15,2013-01-28 22:00:00,
2013-01-28 17:10:00,75.4,75.4,30.12,ESE,109,7.0,7.0,100,0.00,,,0.00,Wunderground v.1.15,2013-01-28 22:10:00,
2013-01-28 17:20:00,75.4,75.4,30.12,East,97,8.0,8.0,100,0.00,,,0.00,Wunderground v.1.15,2013-01-28 22:20:00,
2013-01-28 17:25:00,75.3,75.3,30.12,ESE,112,8.0,8.0,100,0.00,,,0.00,Wunderground v.1.15,2013-01-28 22:25:00,
2013-01-28 17:35:00,75.1,75.1,30.12,ENE,62,7.0,8.0,100,0.00,,,0.00,Wunderground v.1.15,2013-01-28 22:35:00,
2013-01-28 17:45:00,75.1,75.1,30.12,East,79,7.0,8.0,100,0.00,,,0.00,Wunderground v.1.15,2013-01-28 22:45:00,
2013-01-28 17:55:00,74.9,74.9,30.12,East,86,8.0,10.0,100,0.00,,,0.00,Wunderground v.1.15,2013-01-28 22:55:00,
2013-01-28 18:00:00,75.1,75.1,30.12,ENE,66,7.0,7.0,100,0.00,,,0.00,Wunderground v.1.15,2013-01-28 23:00:00,
2013-01-28 18:10:00,75.1,75.1,30.12,East,96,7.0,7.0,100,0.00,,,0.00,Wunderground v.1.15,2013-01-28 23:10:00,
2013-01-28 18:15:00,74.9,74.9,30.12,NE,55,7.0,14.0,100,0.00,,,0.00,Wunderground v.1.15,2013-01-28 23:15:00,
2013-01-28 18:25:00,74.9,74.9,30.12,ENE,64,7.0,8.0,100,0.00,,,0.00,Wunderground v.1.15,2013-01-28 23:25:00,
2013-01-28 18:35:00,74.9,74.9,30.12,ESE,107,7.0,7.0,100,0.00,,,0.00,Wunderground v.1.15,2013-01-28 23:35:00,
2013-01-28 18:45:00,74.9,74.9,30.12,ENE,64,7.0,8.0,100,0.00,,,0.00,Wunderground v.1.15,2013-01-28 23:45:00,
2013-01-28 18:55:00,74.9,74.9,30.12,East,89,6.0,7.0,100,0.00,,,0.00,Wunderground v.1.15,2013-01-28 23:55:00,
2013-01-28 19:05:00,75.1,75.1,30.12,ENE,59,6.0,11.0,100,0.00,,,0.00,Wunderground v.1.15,2013-01-29 00:05:00,
2013-01-28 19:10:00,75.1,75.1,30.12,NE,56,6.0,6.0,100,0.00,,,0.00,Wunderground v.1.15,2013-01-29 00:10:00,
2013-01-28 19:20:00,74.9,74.9,30.13,East,79,5.0,8.0,100,0.00,,,0.00,Wunderground v.1.15,2013-01-29 00:20:00,
2013-01-28 19:25:00,75.1,75.1,30.13,ENE,59,7.0,10.0,100,0.00,,,0.00,Wunderground v.1.15,2013-01-29 00:25:00,
2013-01-28 19:35:00,75.1,75.1,30.13,ENE,64,8.0,12.0,100,0.00,,,0.00,Wunderground v.1.15,2013-01-29 00:35:00,
2013-01-28 19:45:00,75.1,75.1,30.13,ENE,69,8.0,8.0,100,0.00,,,0.00,Wunderground v.1.15,2013-01-29 00:45:00,
2013-01-28 19:50:00,75.1,75.1,30.13,ENE,62,7.0,9.0,100,0.00,,,0.00,Wunderground v.1.15,2013-01-29 00:50:00,
2013-01-28 20:00:00,75.1,75.1,30.13,ENE,78,7.0,7.0,100,0.00,,,0.00,Wunderground v.1.15,2013-01-29 01:00:00,
2013-01-28 20:10:00,75.1,75.1,30.13,ENE,59,7.0,8.0,100,0.00,,,0.00,Wunderground v.1.15,2013-01-29 01:10:00,
2013-01-28 20:20:00,75.3,75.3,30.13,ENE,68,7.0,8.0,100,0.00,,,0.00,Wunderground v.1.15,2013-01-29 01:20:00,
2013-01-28 20:25:00,75.1,75.1,30.13,ENE,78,7.0,8.0,100,0.00,,,0.00,Wunderground v.1.15,2013-01-29 01:25:00,
2013-01-28 20:35:00,75.1,75.1,30.13,East,80,7.0,10.0,100,0.00,,,0.00,Wunderground v.1.15,2013-01-29 01:35:00,
2013-01-28 20:45:00,75.3,75.3,30.13,ENE,73,6.0,6.0,100,0.00,,,0.00,Wunderground v.1.15,2013-01-29 01:45:00,
2013-01-28 20:55:00,75.3,75.3,30.13,ENE,61,6.0,6.0,100,0.00,,,0.00,Wunderground v.1.15,2013-01-29 01:55:00,
2013-01-28 21:05:00,75.3,75.3,30.13,ESE,106,7.0,7.0,100,0.00,,,0.00,Wunderground v.1.15,2013-01-29 02:05:00,
2013-01-28 21:15:00,75.3,75.3,30.13,East,89,7.0,7.0,100,0.00,,,0.00,Wunderground v.1.15,2013-01-29 02:15:00,
2013-01-28 21:25:00,75.3,75.3,30.13,East,80,8.0,11.0,100,0.00,,,0.00,Wunderground v.1.15,2013-01-29 02:25:00,
2013-01-28 21:30:00,75.4,75.4,30.13,ENE,76,8.0,8.0,100,0.00,,,0.00,Wunderground v.1.15,2013-01-29 02:30:00,
2013-01-28 21:40:00,75.4,75.4,30.13,ENE,78,7.0,10.0,100,0.00,,,0.00,Wunderground v.1.15,2013-01-29 02:40:00,
2013-01-28 21:50:00,75.4,75.4,30.13,ENE,66,7.0,11.0,100,0.00,,,0.00,Wunderground v.1.15,2013-01-29 02:50:00,
2013-01-28 21:55:00,75.4,75.4,30.13,East,93,8.0,11.0,100,0.00,,,0.00,Wunderground v.1.15,2013-01-29 02:55:00,
2013-01-28 22:05:00,75.4,75.4,30.13,ENE,59,8.0,8.0,100,0.00,,,0.00,Wunderground v.1.15,2013-01-29 03:05:00,
2013-01-28 22:15:00,75.4,75.4,30.13,ENE,62,6.0,9.0,100,0.00,,,0.00,Wunderground v.1.15,2013-01-29 03:15:00,
2013-01-28 22:25:00,75.3,75.3,30.13,ENE,68,7.0,8.0,100,0.00,,,0.00,Wunderground v.1.15,2013-01-29 03:25:00,
2013-01-28 22:35:00,75.3,75.3,30.13,ESE,109,7.0,8.0,100,0.00,,,0.00,Wunderground v.1.15,2013-01-29 03:35:00,
2013-01-28 22:40:00,75.4,75.4,30.13,ENE,73,8.0,8.0,100,0.00,,,0.00,Wunderground v.1.15,2013-01-29 03:40:00,
2013-01-28 22:50:00,75.3,75.3,30.13,East,93,6.0,6.0,100,0.00,,,0.00,Wunderground v.1.15,2013-01-29 03:50:00,
2013-01-28 23:00:00,75.4,75.4,30.12,East,79,8.0,8.0,100,0.00,,,0.00,Wunderground v.1.15,2013-01-29 04:00:00,
2013-01-28 23:10:00,75.3,75.3,30.12,ENE,64,6.0,6.0,100,0.00,,,0.00,Wunderground v.1.15,2013-01-29 04:10:00,
2013-01-28 23:20:00,75.3,75.3,30.12,East,96,5.0,6.0,100,0.00,,,0.00,Wunderground v.1.15,2013-01-29 04:20:00,
2013-01-28 23:30:00,75.4,75.4,30.12,ESE,112,6.0,6.0,100,0.00,,,0.00,Wunderground v.1.15,2013-01-29 04:30:00,
2013-01-28 23:35:00,75.3,75.3,30.12,ESE,104,7.0,7.0,100,0.00,,,0.00,Wunderground v.1.15,2013-01-29 04:35:00,
2013-01-28 23:45:00,75.4,75.4,30.12,ESE,120,6.0,12.0,100,0.00,,,0.00,Wunderground v.1.15,2013-01-29 04:45:00,
2013-01-28 23:55:00,75.4,75.4,30.12,East,97,7.0,7.0,100,0.00,,,0.00,Wunderground v.1.15,2013-01-29 04:55:00,